ICS-EF (ISS DEB) (45265 NORAD) Tracking and Keplerian Element Data

This shows tracking and keplerian element data for the satellite.

Feedback or suggestion? Click here.




ElementValue
Catalog45265
NameICS-EF (ISS DEB)
Epoch Orbit15615
Epoch Day324.79010175
Epoch Year2022
RAAN237.9367
Inclination51.6327
Eccentricity0.0005992
Argument of Perigee98.1221
Mean Anonmoly262.0458
Mean Motion15.73937289
Decay Rate0.00047359
L11 45265U 98067RJ 22324.79010175 .00047359 00000+0 32857-3 0 9990
L22 45265 51.6327 237.9367 0005992 98.1221 262.0458 15.73937289156152



Live tracking and technical data element details for ICS-EF (ISS DEB) (NORAD 45265). ICS-EF (ISS DEB) can be tracked NOW for your location showing map with azimuth and elevation plus other details from your city location.







IsCatalogInMostPopularTable: catalog: 45265, numindb: 25503
Update: records affected: 1



GetName: 45265 ICS-EF (ISS DEB)

Hit Count: updated at: Sun, 04 Dec 2022 23:05:52 GMT